Terug naar catalogus

SL-16 DEB

LostLEO
NORAD 39710·DEBRIS·🇷🇺 Russia

Gelanceerd Dec 25, 1992 vanaf Baikonur Cosmodrome

Loading…

Volgende Passages (komende 24 uur)

TLE

VerouderdSource: Space-Track

Epoch: Nov 12, 2022, 06:50 UTC

1 39710U 92093KA  22316.28487140  .00000811  00000-0  47737-3 0  9992
2 39710  71.2200   5.2909 0079797  37.3475 323.3156 14.09285876955177

Volg SL-16 DEB in realtime met AllMySat

Download on the App Store